FW1204 Weather Reports


time (UTC)temp
C
wind
direction
speed
KPH
gust
KPH
rain 1hr
cm
rain 24hr
cm
rain mn
cm
humidity
%
barometer
mb
20260906190003 35 215 3.2 8.0 0.00 0.00 0.00 49 1011.7
20260906184559 34 168 3.2 11.3 0.00 0.00 0.00 51 1012.1
20260906183108 34 360 3.2 8.0 0.00 0.00 0.00 52 1012.4
20260906181553 33 360 1.6 8.0 0.00 0.00 0.00 54 1012.7
20260906180109 33 360 1.6 8.0 0.00 0.00 0.00 56 1013.2
20260906174550 32 360 3.2 9.7 0.00 0.00 0.00 61 1013.3
20260906173049 32 360 3.2 9.7 0.00 0.00 0.00 58 1013.6
20260906171549 32 360 8.0 14.5 0.00 0.00 0.00 58 1013.8
20260906170114 32 360 8.0 12.9 0.00 0.00 0.00 58 1013.9
20260906164548 31 360 1.6 17.7 0.00 0.00 0.00 64 1014.1
20260906163049 32 288 0.0 14.5 0.00 0.00 0.00 59 1014.0
20260906161546 33 182 0.0 6.4 0.00 0.00 0.00 57 1014.1
20260906160042 32 180 3.2 6.4 0.00 0.00 0.00 61 1013.9
20260906154540 31 181 1.6 6.4 0.00 0.00 0.00 64 1013.7
20260906153039 31 181 0.0 0.0 0.00 0.00 0.00 65 1013.6
20260906151534 31 180 1.6 6.4 0.00 0.00 0.00 66 1013.5
20260906150035 30 173 3.2 6.4 0.00 0.00 0.00 65 1013.4
20260906144535 30 171 0.0 4.8 0.00 0.00 0.00 69 1013.3
20260906143028 29 171 0.0 6.4 0.00 0.00 0.00 68 1013.5
20260906141528 28 171 4.8 6.4 0.00 0.00 0.00 69 1013.6
20260906140021 28 172 3.2 9.7 0.00 0.00 0.00 68 1013.6
20260906134525 27 169 4.8 8.0 0.00 0.00 0.00 71 1013.5
20260906133016 26 167 4.8 8.0 0.00 0.00 0.00 74 1013.3
20260906131512 25 167 0.0 4.8 0.00 0.00 0.00 75 1012.9
20260906130011 25 360 0.0 4.8 0.00 0.00 0.00 74 1012.9
20260906124512 25 144 0.0 3.2 0.00 0.00 0.00 77 1012.6
20260906123008 24 143 0.0 4.8 0.00 0.00 0.00 77 1012.5
20260906121506 23 360 1.6 8.0 0.00 0.00 0.00 76 1012.3
20260906120006 23 360 1.6 6.4 0.00 0.00 0.00 77 1012.1
20260906114503 23 360 1.6 4.8 0.00 0.00 0.00 77 1012.1
20260906113003 24 141 1.6 4.8 0.00 0.00 0.00 76 1011.9
20260906111503 24 360 1.6 4.8 0.00 0.00 0.00 77 1011.8
20260906110002 23 360 1.6 6.4 0.00 0.00 0.00 77 1011.8
20260906104600 23 140 1.6 3.2 0.00 0.00 0.00 78 1011.8
20260906103058 23 360 1.6 6.4 0.00 0.00 0.00 78 1011.6
20260906101557 24 140 3.2 6.4 0.00 0.00 0.00 77 1011.5
20260906100058 24 360 4.8 8.0 0.00 0.00 0.00 77 1011.6
20260906094605 24 140 4.8 8.0 0.00 0.00 0.00 76 1011.6
20260906093054 24 140 6.4 11.3 0.00 0.00 0.00 75 1011.6
20260906091603 24 144 4.8 6.4 0.00 0.00 0.00 75 1011.6
20260906090052 25 143 4.8 8.0 0.00 0.00 0.00 74 1011.8
20260906084551 25 144 3.2 9.7 0.00 0.00 0.00 74 1011.5
20260906083051 25 126 6.4 11.3 0.00 0.00 0.00 74 1011.5
20260906081547 25 123 3.2 9.7 0.00 0.00 0.00 74 1011.5
20260906080047 25 122 4.8 6.4 0.00 0.00 0.00 74 1011.2
20260906074549 25 121 3.2 4.8 0.00 0.00 0.00 74 1011.4
20260906073043 25 121 1.6 4.8 0.00 0.00 0.00 72 1011.2
20260906071540 25 121 3.2 9.7 0.00 0.00 0.00 71 1011.3
20260906070039 26 121 3.2 11.3 0.00 0.00 0.00 70 1011.3
20260906064539 26 125 3.2 6.4 0.00 0.00 0.00 69 1011.3
20260906063036 26 125 4.8 9.7 0.00 0.00 0.00 68 1011.4
20260906061532 27 125 3.2 6.4 0.00 0.00 0.00 67 1011.5
20260906060030 27 123 6.4 14.5 0.00 0.00 0.00 66 1011.3
20260906054539 27 128 4.8 11.3 0.00 0.00 0.00 66 1011.4
20260906053028 27 121 4.8 9.7 0.00 0.00 0.00 66 1011.4
20260906051528 27 121 4.8 11.3 0.00 0.00 0.00 65 1011.5
20260906050024 27 123 6.4 12.9 0.00 0.00 0.00 65 1011.4
20260906044523 28 123 4.8 16.1 0.00 0.00 0.00 64 1011.4
20260906043030 28 128 6.4 12.9 0.00 0.00 0.00 65 1011.5
20260906041522 28 123 4.8 11.3 0.00 0.00 0.00 65 1011.5
20260906040022 28 117 6.4 11.3 0.00 0.00 0.00 65 1011.3
20260906034521 27 138 6.4 11.3 0.00 0.00 0.00 65 1011.3
20260906033025 27 128 6.4 8.0 0.00 0.00 0.00 65 1011.1
20260906031520 28 128 3.2 8.0 0.00 0.00 0.00 65 1011.0
20260906030022 28 128 3.2 11.3 0.00 0.00 0.00 63 1010.9
20260906024518 28 113 4.8 11.3 0.00 0.00 0.00 63 1010.7
20260906023019 28 112 3.2 9.7 0.00 0.00 0.00 63 1010.3
20260906021518 28 111 3.2 9.7 0.00 0.00 0.00 62 1010.1
20260906020018 29 103 3.2 9.7 0.00 0.00 0.00 63 1009.8
20260906014522 29 102 3.2 6.4 0.00 0.00 0.00 62 1009.6
20260906013025 30 103 3.2 6.4 0.00 0.00 0.00 60 1009.5
20260906011516 30 103 3.2 9.7 0.00 0.00 0.00 60 1009.4
20260906010016 30 103 1.6 4.8 0.00 0.00 0.00 61 1009.3
20260906004514 30 103 4.8 6.4 0.00 0.00 0.00 60 1009.0
20260906003014 31 103 3.2 6.4 0.00 0.00 0.00 60 1009.2
20260906001518 31 101 3.2 6.4 0.00 0.00 0.00 59 1009.4
20260906000033 32 101 1.6 6.4 0.00 0.00 0.00 59 1009.3
20260905234512 32 101 3.2 6.4 0.00 0.00 0.00 58 1009.4
20260905233012 32 101 3.2 6.4 0.00 0.00 0.00 57 1009.4
20260905231510 33 101 4.8 11.3 0.00 0.00 0.00 54 1009.4
20260905230010 33 111 3.2 9.7 0.00 0.00 0.00 54 1009.4
20260905224509 33 111 3.2 9.7 0.00 0.00 0.00 53 1009.4
20260905223009 34 112 4.8 11.3 0.00 0.00 0.00 52 1009.4
20260905221507 35 110 4.8 16.1 0.00 0.00 0.00 51 1009.5
20260905220006 36 133 6.4 16.1 0.00 0.00 0.00 48 1009.4
20260905214506 35 139 11.3 16.1 0.00 0.00 0.00 48 1009.5
20260905213003 36 101 8.0 16.1 0.00 0.00 0.00 45 1009.6
20260905211502 36 128 8.0 16.1 0.00 0.00 0.00 46 1009.6
20260905210001 36 93 14.5 19.3 0.00 0.00 0.00 45 1009.7
20260905204603 36 121 9.7 17.7 0.00 0.00 0.00 47 1009.9
20260905203057 36 113 9.7 17.7 0.00 0.00 0.00 49 1010.1
20260905201555 36 76 12.9 19.3 0.00 0.00 0.00 47 1010.3
20260905200054 35 132 9.7 19.3 0.00 0.00 0.00 51 1010.6
20260905194607 36 106 12.9 20.9 0.00 0.00 0.00 50 1010.6
20260905193051 35 91 12.9 25.7 0.00 0.00 0.00 50 1010.7
20260905191556 35 111 14.5 20.9 0.00 0.00 0.00 49 1010.9